Regional Weather Roundup
Issued by NWS Charleston, SC

Current Version | Previous Version | Text Only | Print | Product List | Glossary Off
Versions: 1 2 3 4 5 6 7 8 9 10 11 12 13 14 15 16 17 18 19 20 21 22 23 24 25 26 27 28 29 30 31 32 33 34 35 36 37 38 39 40 41 42 43 44 45 46 47 48 49 50
000 ASUS42 KCHS 270227 RWRCHS REGIONAL WEATHER ROUNDUP NATIONAL WEATHER SERVICE CHARLESTON SC 1000 PM EDT WED APR 26 2017 NOTE: "FAIR" INDICATES FEW OR NO CLOUDS BELOW 12,000 FEET WITH NO SIGNIFICANT WEATHER AND/OR OBSTRUCTIONS TO VISIBILITY. NOT ALL STATIONS ARE QUALITY CONTROLLED. USE DATA WITH CAUTION... ESPECIALLY DEWPOINT OBSERVATIONS. SCZ027-030-031-034>040-042>050-270300- ...SOUTHEAST SOUTH CAROLINA... CITY SKY/WX TMP DP RH WIND PRES REMARKS N CHARLESTON CLEAR 69 59 70 S10 29.87R WATERFRONT PRK N/A 72 64 76 S12 29.86R JOHNS ISLAND FAIR 72 63 73 S13 29.88S PINOPOLIS N/A 72 59 64 VRB3 29.78R MONCKS CORNER FAIR 66 57 72 S5 29.87S SUMMERVILLE FAIR 68 59 73 CALM 29.88R BEAUFORT MCAS PTCLDY 72 65 78 S8 29.86R BEAUFORT ARPT FAIR 68 63 83 S5 29.87R HILTON HEAD IS CLEAR 72 64 78 VRB7 29.88R WALTERBORO CLEAR 64 61 88 SE6 29.87R ALLENDALE FAIR 70 59 68 SE8 29.84R ...SOUTHERN MIDLANDS AND PEE DEE... CITY SKY/WX TMP DP RH WIND PRES REMARKS GEORGETOWN FAIR 68 59 73 S8 29.89R KINGSTREE FAIR 70 55 60 SE8 29.86R ORANGEBURG CLEAR 71 58 63 S10 29.84R BARNWELL FAIR 72 61 68 SE9 29.85R AIKEN FAIR 68 59 73 SE8 29.86R MANNING FAIR 70 57 64 S25G32 29.86R COLUMBIA CLEAR 75 60 59 S12 29.81R SUMTER CLEAR 72 61 67 S9 29.81R FLORENCE CLEAR 71 63 75 S7 29.84R MYRTLE BEACH NOT AVBL N MYRTLE BEACH CLEAR 71 63 75 SW15G25 29.86R $$ GAZ063-065-086>088-099>101-113>116-118-119-134>141-150-270300- ...SOUTHEAST GEORGIA... CITY SKY/WX TMP DP RH WIND PRES REMARKS SAVANNAH ARPT PTCLDY 69 61 75 S7 29.86R HUNTER AAF PTCLDY 71 67 86 CALM 29.84R FORT STEWART CLEAR 70 62 77 SE6 29.83R STATESBORO CLEAR 71 61 70 S8 29.85R SYLVANIA CLEAR N/A N/A N/A S3 29.86R CLAXTON FAIR 71 66 84 E6 29.85R ...CSRA...CENTRAL AND FAR SOUTHEAST GEORGIA... CITY SKY/WX TMP DP RH WIND PRES REMARKS THOMSON CLEAR 69 60 75 W3 29.87R AUGUSTA-BUSH PTCLDY 68 63 84 S3 29.79R AUGUSTA-DANIEL CLEAR 76 57 51 S6 29.81R SWAINSBORO CLOUDY 72 61 68 CALM 29.84R VIDALIA CLOUDY 75 59 57 S7 29.84R EASTMAN CLOUDY 67 54 62 S3 29.85R HAZLEHURST FAIR 74 57 55 S8 29.84R ALMA CLEAR 71 55 56 SW6 29.84R WAYCROSS PTCLDY 71 58 64 SW5 29.86R JESUP MOCLDY 70 61 73 S5 29.87R BAXLEY FAIR 72 61 68 SW7 29.85R BRUNSWICK CLEAR 73 64 73 S7G16 29.88R SAINT SIMONS CLEAR 73 62 68 S8G21 29.87R $$ SCZ027-028-034-036>038-045-046-048>050-GAZ119-141-270300- ...LAKE AND SUPPLEMENTAL COASTAL OBSERVATIONS... STATION/POSITION TIME TEMP WIND PRES WAVE SWELL AIR SEA DIR/SP/G HT/PER HT/PER/DIR (UTC) (F) (DEG/KT/KT) (MB) (FT/S) (FT/S/D) WINYAH BAY 0130 73 210/ 11 1011.0R LAKE MURRAY 0220 73 150/ 6/ 7 1009.1R ACE BASIN NERRS 0145 71 170/ 2 1011.0S FORT PULASKI 0200 72 74 200/ 9/ 13 1011.5 SAPELO ISLAND 0145 74 180/ 17 1011.0S $$ ANZ835-935-AMZ111-154-330-350-352-354-370-450-454-472-270300- ...C-MAN AND BUOY OBSERVATIONS... STATION/POSITION TIME TEMP WIND PRES WAVE SWELL AIR SEA DIR/SP/G HT/PER HT/PER/DIR (UTC) (F) (DEG/KT/KT) (MB) (FT/S) (FT/S/D) BUOY 41004 0210 73 73 190/ 12/ 16 1012.0 BUOY 41008 0150 73 72 160/ 16/ 17 1010.9R 3/ 9 2/100/ 9 FOLLY BEACH CMAN 0200 73 180/ 15/ 19 1012.5R CAPERS NEARSHORE 0208 76 72 200/ 16/ 19 1011.7R FRIPP NEARSHORE 0208 72 72 180/ 12/ 14 1011.2R STATION/POSITION TIME TEMP WIND PRES WAVE SWELL AIR SEA DIR/SP/G HT/PER HT/PER/DIR (UTC) (F) (DEG/KT/KT) (MB) (FT/S) (FT/S/D) 5E ST. MARYS GA 0200 73 N/A 3/ 9 2/100/11 FRYING PAN BUOY 0210 74 74 210/ 14/ 16 1012.1 BUOY 41025 0150 75 77 220/ 14/ 17 1011.8R 5/ 9 5/140/ 9 CAPE LOOKOUT NC 0200 72 210/ 8/ 9 1011.4R BUOY 41002 0150 75 75 210/ 10/ 12 1014.5R 6/ 9 5/ 80/ 9 BUOY 41010 0210 76 78 160/ 8/ 12 1014.3 ST AUGUSTINE FL 0200 74 75 170/ 21/ 23 1013.0R $$

USA.gov is the U.S. government's official web portal to all federal, state and local government web resources and services.